When you browse on this site, cookies collect data to enhance your experience and personalize the content and advertising you see.
Visit our Privacy Policy to learn more. By continuing to use the site, you agree to this use of cookies and data.
  • en France
  • Liste des pays
  • À 7 jours
  • Température de l'eau
  • Carte satellitaire
  • Carte météo
  • Widgets météo
  • user-avatar
    Se connecter

    Météo par heure à Ichgl

    Ce jour, 18 Juin, Mardi

    Heure Température Précipitation Vent Pression Humidité
    00:00 +6°C° 0 mm 1 m/s 576 mmHg 88%
    01:00 +7°C° 0 mm 1 m/s 576 mmHg 84%
    02:00 +6°C° 0 mm 1 m/s 576 mmHg 85%
    03:00 +6°C° 0 mm 1 m/s 575 mmHg 85%
    04:00 +6°C° 0 mm 1 m/s 575 mmHg 86%
    05:00 +7°C° 0 mm 1 m/s 576 mmHg 82%
    06:00 +9°C° 0 mm 1 m/s 577 mmHg 79%
    07:00 +9°C° 0 mm 0 m/s 578 mmHg 76%
    08:00 +11°C° 0.2 mm 0 m/s 578 mmHg 70%
    09:00 +13°C° 0.2 mm 1 m/s 579 mmHg 64%
    10:00 +15°C° 0.2 mm 1 m/s 579 mmHg 58%
    11:00 +15°C° 0.6 mm 1 m/s 580 mmHg 56%
    12:00 +16°C° 0.6 mm 1 m/s 580 mmHg 54%
    13:00 +16°C° 0.6 mm 1 m/s 580 mmHg 52%
    14:00 +16°C° 1.4 mm 1 m/s 579 mmHg 56%
    15:00 +15°C° 1.4 mm 1 m/s 579 mmHg 60%
    16:00 +14°C° 1.4 mm 1 m/s 578 mmHg 63%
    17:00 +14°C° 1.1 mm 1 m/s 578 mmHg 69%
    18:00 +13°C° 1.1 mm 1 m/s 577 mmHg 75%
    19:00 +12°C° 1.1 mm 1 m/s 577 mmHg 81%
    20:00 +10°C° 0.4 mm 1 m/s 576 mmHg 85%
    21:00 +9°C° 0.4 mm 1 m/s 576 mmHg 88%
    22:00 +7°C° 0.4 mm 0 m/s 575 mmHg 92%
    23:00 +7°C° 0.1 mm 0 m/s 575 mmHg 91%

    Demain, 19 Juin, Mercredi

    Heure Température Précipitation Vent Pression Humidité
    00:00 +6°C° 0.1 mm 0 m/s 575 mmHg 91%
    01:00 +7°C° 0.1 mm 1 m/s 575 mmHg 90%
    02:00 +7°C° 0 mm 1 m/s 575 mmHg 90%
    03:00 +7°C° 0 mm 1 m/s 574 mmHg 89%
    04:00 +7°C° 0 mm 1 m/s 574 mmHg 88%
    05:00 +8°C° 0 mm 1 m/s 575 mmHg 84%
    06:00 +10°C° 0 mm 1 m/s 575 mmHg 80%
    07:00 +11°C° 0 mm 1 m/s 576 mmHg 76%
    08:00 +12°C° 0.3 mm 1 m/s 577 mmHg 69%
    09:00 +13°C° 0.3 mm 0 m/s 577 mmHg 61%
    10:00 +14°C° 0.3 mm 0 m/s 578 mmHg 54%
    11:00 +15°C° 0.3 mm 1 m/s 578 mmHg 51%
    12:00 +16°C° 0.3 mm 1 m/s 578 mmHg 48%
    13:00 +18°C° 0.3 mm 1 m/s 578 mmHg 44%
    14:00 +16°C° 1.1 mm 1 m/s 578 mmHg 50%
    15:00 +15°C° 1.1 mm 1 m/s 577 mmHg 55%
    16:00 +14°C° 1.1 mm 1 m/s 577 mmHg 60%
    17:00 +14°C° 1.1 mm 1 m/s 576 mmHg 66%
    18:00 +13°C° 1.1 mm 1 m/s 576 mmHg 72%
    19:00 +12°C° 1.1 mm 1 m/s 576 mmHg 78%
    20:00 +11°C° 0.2 mm 1 m/s 576 mmHg 79%
    21:00 +10°C° 0.2 mm 1 m/s 575 mmHg 81%
    22:00 +9°C° 0.2 mm 1 m/s 575 mmHg 83%
    23:00 +8°C° 0 mm 1 m/s 575 mmHg 83%

    Après-demain, 20 Juin, Jeudi

    Heure Température Précipitation Vent Pression Humidité
    00:00 +7°C° 0 mm 1 m/s 574 mmHg 84%
    01:00 +6°C° 0 mm 1 m/s 574 mmHg 84%
    02:00 +6°C° 0 mm 1 m/s 573 mmHg 84%
    03:00 +6°C° 0 mm 1 m/s 573 mmHg 84%
    04:00 +6°C° 0 mm 1 m/s 573 mmHg 83%
    05:00 +7°C° 0 mm 1 m/s 574 mmHg 78%
    06:00 +9°C° 0 mm 1 m/s 575 mmHg 72%
    07:00 +11°C° 0 mm 1 m/s 576 mmHg 67%
    08:00 +12°C° 0.2 mm 1 m/s 576 mmHg 62%
    09:00 +14°C° 0.2 mm 1 m/s 577 mmHg 56%
    10:00 +15°C° 0.2 mm 1 m/s 578 mmHg 51%
    11:00 +15°C° 1 mm 1 m/s 577 mmHg 54%
    12:00 +15°C° 1 mm 1 m/s 577 mmHg 57%
    13:00 +14°C° 1 mm 2 m/s 577 mmHg 61%
    14:00 +14°C° 1.5 mm 2 m/s 577 mmHg 65%
    15:00 +14°C° 1.5 mm 2 m/s 577 mmHg 69%
    16:00 +13°C° 1.5 mm 1 m/s 577 mmHg 73%
    17:00 +12°C° 1.1 mm 1 m/s 576 mmHg 78%
    18:00 +10°C° 1.1 mm 2 m/s 576 mmHg 83%
    19:00 +10°C° 1.1 mm 2 m/s 576 mmHg 88%
    20:00 +10°C° 0.3 mm 1 m/s 576 mmHg 90%
    21:00 +9°C° 0.3 mm 1 m/s 575 mmHg 92%
    22:00 +8°C° 0.3 mm 1 m/s 575 mmHg 94%
    23:00 +7°C° 0.1 mm 1 m/s 575 mmHg 95%

    21 Juin, Vendredi

    Heure Température Précipitation Vent Pression Humidité
    00:00 +7°C° 0 mm 1 m/s 575 mmHg 95%
    01:00 +5°C° 0 mm 0 m/s 574 mmHg 95%
    02:00 +5°C° 0 mm 0 m/s 574 mmHg 94%
    03:00 +5°C° 0 mm 0 m/s 574 mmHg 94%
    04:00 +5°C° 0 mm 0 m/s 574 mmHg 93%
    05:00 +7°C° 0.2 mm 1 m/s 574 mmHg 91%
    06:00 +7°C° 0.2 mm 1 m/s 575 mmHg 89%
    07:00 +8°C° 0.2 mm 1 m/s 575 mmHg 88%
    08:00 +8°C° 0.5 mm 1 m/s 575 mmHg 87%
    09:00 +8°C° 0.5 mm 1 m/s 575 mmHg 87%
    10:00 +8°C° 0.5 mm 1 m/s 575 mmHg 87%
    11:00 +9°C° 0.1 mm 1 m/s 576 mmHg 81%
    12:00 +11°C° 0.1 mm 1 m/s 577 mmHg 75%
    13:00 +12°C° 0.1 mm 1 m/s 577 mmHg 68%
    14:00 +13°C° 0.7 mm 1 m/s 577 mmHg 69%
    15:00 +13°C° 0.7 mm 1 m/s 577 mmHg 70%
    16:00 +13°C° 0.7 mm 2 m/s 577 mmHg 71%
    17:00 +12°C° 1.2 mm 2 m/s 577 mmHg 77%
    18:00 +10°C° 1.2 mm 2 m/s 576 mmHg 83%
    19:00 +9°C° 1.2 mm 2 m/s 576 mmHg 89%
    20:00 +8°C° 0.9 mm 2 m/s 576 mmHg 90%
    21:00 +8°C° 0.9 mm 1 m/s 576 mmHg 92%
    22:00 +8°C° 0.9 mm 1 m/s 576 mmHg 93%
    23:00 +8°C° 0.3 mm 1 m/s 576 mmHg 93%

    22 Juin, Samedi

    Heure Température Précipitation Vent Pression Humidité
    00:00 +7°C° 0.3 mm 1 m/s 576 mmHg 92%
    01:00 +6°C° 0.3 mm 0 m/s 576 mmHg 92%
    02:00 +7°C° 0.1 mm 1 m/s 575 mmHg 92%
    03:00 +6°C° 0.1 mm 1 m/s 575 mmHg 92%
    04:00 +6°C° 0.1 mm 1 m/s 574 mmHg 92%
    05:00 +7°C° 0 mm 1 m/s 575 mmHg 88%
    06:00 +8°C° 0 mm 1 m/s 576 mmHg 84%
    07:00 +9°C° 0 mm 1 m/s 577 mmHg 80%
    08:00 +10°C° 0.7 mm 1 m/s 577 mmHg 77%
    09:00 +11°C° 0.7 mm 1 m/s 577 mmHg 74%
    10:00 +12°C° 0.7 mm 1 m/s 578 mmHg 71%
    11:00 +13°C° 1.7 mm 1 m/s 578 mmHg 72%
    12:00 +13°C° 1.7 mm 1 m/s 578 mmHg 73%
    13:00 +13°C° 1.7 mm 1 m/s 578 mmHg 74%
    14:00 +13°C° 2.1 mm 1 m/s 578 mmHg 75%
    15:00 +12°C° 2.1 mm 1 m/s 577 mmHg 77%
    16:00 +12°C° 2.1 mm 2 m/s 577 mmHg 79%
    17:00 +10°C° 1.6 mm 2 m/s 577 mmHg 81%
    18:00 +10°C° 1.6 mm 2 m/s 577 mmHg 84%
    19:00 +9°C° 1.6 mm 2 m/s 576 mmHg 87%
    20:00 +9°C° 0.4 mm 1 m/s 576 mmHg 89%
    21:00 +8°C° 0.4 mm 1 m/s 576 mmHg 90%
    22:00 +5°C° 0.4 mm 0 m/s 576 mmHg 92%
    23:00 +5°C° 0 mm 0 m/s 575 mmHg 91%

    23 Juin, Dimanche

    Heure Température Précipitation Vent Pression Humidité
    00:00 +4°C° 0 mm 0 m/s 575 mmHg 91%
    01:00 +4°C° 0 mm 0 m/s 575 mmHg 90%
    02:00 +3°C° 0 mm 0 m/s 575 mmHg 90%
    03:00 +3°C° 0 mm 0 m/s 574 mmHg 89%
    04:00 +3°C° 0 mm 0 m/s 574 mmHg 88%
    05:00 +5°C° 0 mm 0 m/s 575 mmHg 84%
    06:00 +6°C° 0 mm 0 m/s 577 mmHg 80%
    07:00 +9°C° 0 mm 1 m/s 578 mmHg 75%
    08:00 +11°C° 0 mm 1 m/s 579 mmHg 67%
    09:00 +13°C° 0 mm 1 m/s 580 mmHg 60%
    10:00 +15°C° 0 mm 1 m/s 580 mmHg 52%
    11:00 +16°C° 0 mm 1 m/s 581 mmHg 47%
    12:00 +18°C° 0 mm 1 m/s 581 mmHg 42%
    13:00 +19°C° 0 mm 1 m/s 582 mmHg 37%
    14:00 +19°C° 0 mm 1 m/s 582 mmHg 38%
    15:00 +18°C° 0 mm 2 m/s 582 mmHg 39%
    16:00 +18°C° 0 mm 2 m/s 582 mmHg 40%
    17:00 +17°C° 0 mm 2 m/s 581 mmHg 49%
    18:00 +15°C° 0 mm 2 m/s 581 mmHg 58%
    19:00 +14°C° 0 mm 1 m/s 580 mmHg 67%
    20:00 +12°C° 0 mm 1 m/s 580 mmHg 72%
    21:00 +10°C° 0 mm 1 m/s 579 mmHg 77%
    22:00 +8°C° 0 mm 0 m/s 579 mmHg 81%
    23:00 +8°C° 0 mm 1 m/s 579 mmHg 82%
    Voir plus